Home > Weather > Chania > Past weeks

Flag for Greece Weather for the Past 2 Weeks in Chania, Crete, Greece

Now
59 °F

Passing clouds.


Feels Like: 59 °F
Forecast: 59 / 69 °F
Wind: No wind

Location: Souda Airport

Current Time: Feb 13, 2016 at 10:20:39 PM

Latest Report: Feb 13, 2016 at 9:50 PM


Visibility: N/A

Pressure: 29.86 "Hg

Humidity: 72%

Dew point: 50 °F

Location of ChaniaLocation

Historic Weather in Chania — Graph

°F

Chania Temperature Yesterday

Maximum temperature yesterday: 72 °F (at 1:20 PM)
Minimum temperature yesterday: 54 °F (at 5:50 AM)
Average temperature yesterday: 62 °F

High & Low Weather Summary for the Past Weeks

 TemperatureHumidityPressure
High72 °F (Feb 12, 1:20 PM)100% (Jan 30, 10:50 PM)30.36 "Hg (Jan 30, 10:50 PM)
Low39 °F (Feb 8, 4:50 AM)46% (Feb 3, 11:50 AM)29.77 "Hg (Feb 5, 1:20 PM)
Average55 °F76%30.14 "Hg
* Reported Jan 29 8:20 PM — Feb 13 8:50 PM, Chania, Weather by CustomWeather, © 2016

Note: Actual official high and low records may vary slightly from our data, if they occured in-between our weather recording intervals... More about our weather records

Advertising

Chania Weather History for the Previous 24 Hours

 ConditionsComfort  
Time TempWeatherWind HumidityBarometerVisibility
8:50 PM
Sat, Feb 13
59 °FPartly cloudy.5 mph82%29.86 "HgN/A
8:20 PM59 °FPartly cloudy.5 mph82%29.86 "HgN/A
7:50 PM59 °FPartly cloudy.7 mph82%29.86 "HgN/A
7:20 PM61 °FPartly cloudy.7 mph77%29.86 "HgN/A
6:50 PM61 °FPartly cloudy.5 mph77%29.86 "HgN/A
5:50 PM64 °FBroken clouds.7 mph64%29.86 "HgN/A
5:20 PM66 °FScattered clouds.9 mph56%29.83 "HgN/A
4:50 PM66 °FScattered clouds.16 mph56%29.83 "HgN/A
4:20 PM68 °FScattered clouds.18 mph53%29.83 "HgN/A
3:50 PM68 °FScattered clouds.18 mph53%29.83 "HgN/A
3:20 PM68 °FScattered clouds.16 mph53%29.83 "HgN/A
2:50 PM68 °FScattered clouds.16 mph53%29.83 "HgN/A
2:20 PM68 °FBroken clouds.18 mph53%29.86 "HgN/A
1:50 PM68 °FBroken clouds.15 mph53%29.86 "HgN/A
1:20 PM64 °FBroken clouds.12 mph64%29.86 "HgN/A
12:50 PM64 °FPartly sunny.No wind64%29.86 "HgN/A
12:20 PM64 °FPartly sunny.No wind64%29.89 "HgN/A
11:50 AM64 °FPartly sunny.No wind64%29.89 "HgN/A
11:20 AM64 °FPartly sunny.No wind64%29.89 "HgN/A
10:50 AM64 °FPartly sunny.No wind64%29.89 "HgN/A
10:20 AM63 °FPartly sunny.No wind59%29.86 "HgN/A
9:50 AM63 °FPartly sunny.No wind59%29.86 "HgN/A
9:20 AM61 °FPartly sunny.No wind68%29.86 "HgN/A
8:50 AM61 °FPartly sunny.No wind68%29.86 "HgN/A
8:20 AM55 °FScattered clouds.No wind72%29.86 "HgN/A
7:50 AM55 °FScattered clouds.No wind72%29.86 "HgN/A
7:20 AM54 °FPassing clouds.No wind77%29.83 "HgN/A
6:50 AM54 °FPassing clouds.No wind77%29.83 "HgN/A
6:20 AM55 °FPassing clouds.No wind72%29.83 "HgN/A
5:50 AM55 °FPassing clouds.No wind72%29.83 "HgN/A
5:20 AM57 °FPassing clouds.No wind72%29.83 "HgN/A
4:50 AM57 °FPassing clouds.No wind72%29.83 "HgN/A
4:20 AM59 °FPassing clouds.No wind63%29.83 "HgN/A
3:50 AM59 °FPassing clouds.No wind63%29.83 "HgN/A
3:20 AM59 °FPassing clouds.No wind63%29.86 "HgN/A
2:50 AM59 °FPassing clouds.No wind68%29.86 "HgN/A
2:20 AM59 °FPassing clouds.No wind72%29.86 "HgN/A
1:50 AM59 °FPassing clouds.No wind72%29.86 "HgN/A
12:50 AM59 °FPassing clouds.5 mph63%29.89 "HgN/A
12:20 AM61 °FPassing clouds.5 mph59%29.89 "HgN/A
11:20 PM
Fri, Feb 12
61 °FPassing clouds.No wind55%29.92 "HgN/A
10:50 PM59 °FPassing clouds.No wind59%29.92 "HgN/A
10:20 PM57 °FPassing clouds.No wind72%29.92 "HgN/A
Weather by CustomWeather, © 2016

See weather overviewHow to use our weather pages